Weather History for Sturgis, MI

Change the Weather History Date:

Saturday, March 2, 2013

  Actual Average (KHAI) Record (KHAI)
Temperature  
Mean Temperature 24 °F -  
Max Temperature 28 °F 43 °F 67 °F (1992)
Min Temperature 19 °F 22 °F -4 °F (1963)
Degree Days  
Heating Degree Days 42    
Moisture  
Dew Point 17 °F    
Average Humidity 74    
Maximum Humidity 86    
Minimum Humidity 59    
Precipitation  
Precipitation 0.00 in - - ()
Sea Level Pressure  
Sea Level Pressure 30.07 in    
Wind  
Wind Speed 5 mph (North)    
Max Wind Speed 13 mph    
Max Gust Speed 20 mph    
Visibility 10 miles    
Events      
Averages and records for this station are not official NWS values.
T = Trace of Precipitation, MM = Missing Value Source: NWS Daily Summary

Daily Weather History Graph

Daily Weather History Graph

Search for Another Location

Airport:

Trip Planner

Search our weather history database for the weather conditions in past years. The results will help you decide how hot, cold, wet, or windy it might be!

Date:

Astronomy

Mar. 02, 2013 Rise Set
Actual Time 7:14 AM EST 6:33 PM EST
Civil Twilight 6:46 AM EST 7:01 PM EST
Nautical Twilight 6:14 AM EST 7:33 PM EST
Astronomical Twilight 5:42 AM EST 8:06 PM EST
Moon No Moon Rise 9:37 AM EST (3/2)
Length of Visible Light 12h 14m
Length of Day
11h 18m
Waning Gibbous, 74% of the Moon is Illuminated
Mar 2
Waning Gibbous
Mar 4
Last Quarter
Mar 11
New
Mar 19
First Quarter
Mar 27
Full

Hourly Weather History & Observations

Time (EST) Temp. Windchill Dew Point Humidity Pressure Visibility Wind Dir Wind Speed Gust Speed Precip Events Conditions
12:15 AM 24.8 °F - 17.6 °F 74% 30.08 in 10.0 mi Calm Calm - N/A   Overcast
12:34 AM 24.8 °F - 17.6 °F 74% 30.08 in 10.0 mi Calm Calm - N/A   Overcast
12:55 AM 24.8 °F - 19.4 °F 80% 30.09 in 10.0 mi Calm Calm - N/A   Overcast
1:15 AM 24.8 °F - 17.6 °F 74% 30.08 in 10.0 mi Calm Calm - N/A   Overcast
1:34 AM 24.8 °F 19.1 °F 19.4 °F 80% 30.09 in 10.0 mi North 4.6 mph - N/A   Overcast
1:55 AM 24.8 °F 16.9 °F 19.4 °F 80% 30.09 in 10.0 mi North 6.9 mph - N/A   Overcast
2:15 AM 24.8 °F 15.3 °F 19.4 °F 80% 30.09 in 10.0 mi North 9.2 mph - N/A   Overcast
2:34 AM 24.8 °F 16.9 °F 17.6 °F 74% 30.09 in 10.0 mi North 6.9 mph - N/A   Overcast
2:55 AM 24.8 °F 19.1 °F 17.6 °F 74% 30.08 in 10.0 mi North 4.6 mph - N/A   Overcast
3:14 AM 24.8 °F 20.5 °F 17.6 °F 74% 30.08 in 10.0 mi North 3.5 mph - N/A   Overcast
3:34 AM 24.8 °F 17.9 °F 17.6 °F 74% 30.07 in 10.0 mi North 5.8 mph - N/A   Overcast
3:55 AM 24.8 °F 16.9 °F 17.6 °F 74% 30.07 in 10.0 mi North 6.9 mph - N/A   Overcast
4:15 AM 23.0 °F 15.8 °F 17.6 °F 80% 30.07 in 10.0 mi North 5.8 mph - N/A   Overcast
4:35 AM 23.0 °F 15.8 °F 17.6 °F 80% 30.07 in 10.0 mi North 5.8 mph - N/A   Overcast
4:55 AM 23.0 °F 13.9 °F 17.6 °F 80% 30.07 in 10.0 mi North 8.1 mph - N/A   Overcast
5:14 AM 23.0 °F 17.0 °F 17.6 °F 80% 30.07 in 10.0 mi North 4.6 mph - N/A   Overcast
5:35 AM 23.0 °F 13.1 °F 15.8 °F 74% 30.07 in 10.0 mi North 9.2 mph - N/A   Overcast
5:55 AM 23.0 °F 14.7 °F 15.8 °F 74% 30.07 in 10.0 mi North 6.9 mph - N/A   Overcast
6:14 AM 23.0 °F 14.7 °F 15.8 °F 74% 30.07 in 10.0 mi North 6.9 mph - N/A   Overcast
6:35 AM 23.0 °F 15.8 °F 17.6 °F 80% 30.07 in 10.0 mi North 5.8 mph - N/A   Overcast
6:55 AM 23.0 °F 15.8 °F 17.6 °F 80% 30.07 in 10.0 mi North 5.8 mph - N/A   Overcast
7:15 AM 23.0 °F 15.8 °F 15.8 °F 74% 30.08 in 10.0 mi North 5.8 mph - N/A   Overcast
7:35 AM 23.0 °F 15.8 °F 15.8 °F 74% 30.08 in 10.0 mi NNW 5.8 mph - N/A   Overcast
7:54 AM 23.0 °F 14.7 °F 15.8 °F 74% 30.09 in 10.0 mi North 6.9 mph - N/A   Overcast
8:15 AM 21.2 °F 13.6 °F 15.8 °F 80% 30.09 in 10.0 mi NNW 5.8 mph - N/A   Overcast
8:35 AM 21.2 °F 13.6 °F 15.8 °F 80% 30.09 in 10.0 mi NNW 5.8 mph - N/A   Scattered Clouds
8:54 AM 23.0 °F 13.9 °F 15.8 °F 74% 30.09 in 10.0 mi North 8.1 mph - N/A   Clear
9:15 AM 24.8 °F 16.9 °F 15.8 °F 69% 30.09 in 10.0 mi North 6.9 mph - N/A   Clear
9:35 AM 23.0 °F 14.7 °F 15.8 °F 74% 30.09 in 10.0 mi NNW 6.9 mph - N/A   Clear
9:54 AM 24.8 °F 16.9 °F 15.8 °F 69% 30.09 in 10.0 mi North 6.9 mph - N/A   Clear
10:15 AM 24.8 °F 16.9 °F 15.8 °F 69% 30.09 in 10.0 mi North 6.9 mph - N/A   Clear
10:35 AM 24.8 °F 16.9 °F 15.8 °F 69% 30.09 in 10.0 mi North 6.9 mph - N/A   Clear
10:54 AM 24.8 °F 15.3 °F 15.8 °F 69% 30.09 in 10.0 mi NNW 9.2 mph - N/A   Scattered Clouds
11:15 AM 24.8 °F 15.3 °F 15.8 °F 69% 30.09 in 10.0 mi North 9.2 mph - N/A   Scattered Clouds
11:35 AM 24.8 °F 14.0 °F 15.8 °F 69% 30.08 in 10.0 mi North 11.5 mph - N/A   Scattered Clouds
11:54 AM 26.6 °F 17.5 °F 15.8 °F 64% 30.08 in 10.0 mi North 9.2 mph - N/A   Mostly Cloudy
12:15 PM 24.8 °F 15.3 °F 15.8 °F 69% 30.08 in 10.0 mi North 9.2 mph - N/A   Scattered Clouds
12:34 PM 26.6 °F 15.7 °F 15.8 °F 64% 30.08 in 10.0 mi North 12.7 mph 19.6 mph N/A   Scattered Clouds
12:55 PM 26.6 °F 18.2 °F 15.8 °F 64% 30.07 in 10.0 mi North 8.1 mph - N/A   Scattered Clouds
1:15 PM 26.6 °F 18.2 °F 15.8 °F 64% 30.06 in 10.0 mi North 8.1 mph - N/A   Scattered Clouds
1:34 PM 26.6 °F 16.8 °F 15.8 °F 64% 30.06 in 10.0 mi North 10.4 mph - N/A   Scattered Clouds
1:55 PM 26.6 °F 18.2 °F 15.8 °F 64% 30.05 in 10.0 mi NNW 8.1 mph - N/A   Clear
2:15 PM 26.6 °F 20.0 °F 15.8 °F 64% 30.05 in 10.0 mi NNE 5.8 mph - N/A   Clear
2:34 PM 26.6 °F 18.2 °F 15.8 °F 64% 30.04 in 10.0 mi NNW 8.1 mph - N/A   Scattered Clouds
2:55 PM 28.4 °F 21.2 °F 15.8 °F 59% 30.04 in 10.0 mi North 6.9 mph - N/A   Mostly Cloudy
3:15 PM 28.4 °F 19.7 °F 15.8 °F 59% 30.04 in 10.0 mi North 9.2 mph - N/A   Scattered Clouds
3:34 PM 28.4 °F 19.7 °F 15.8 °F 59% 30.04 in 10.0 mi NNW 9.2 mph - N/A   Mostly Cloudy
3:55 PM 28.4 °F 20.4 °F 17.6 °F 64% 30.04 in 10.0 mi North 8.1 mph - N/A   Mostly Cloudy
4:15 PM 26.6 °F 18.2 °F 17.6 °F 69% 30.04 in 10.0 mi NNE 8.1 mph - N/A   Overcast
4:34 PM 26.6 °F 17.5 °F 17.6 °F 69% 30.04 in 10.0 mi NNE 9.2 mph - N/A   Overcast
4:55 PM 26.6 °F 19.1 °F 17.6 °F 69% 30.05 in 10.0 mi NNE 6.9 mph - N/A   Overcast
5:14 PM 26.6 °F 17.5 °F 17.6 °F 69% 30.05 in 10.0 mi NNE 9.2 mph - N/A   Overcast
5:35 PM 26.6 °F 20.0 °F 17.6 °F 69% 30.05 in 10.0 mi North 5.8 mph - N/A   Overcast
5:55 PM 26.6 °F 19.1 °F 17.6 °F 69% 30.06 in 10.0 mi North 6.9 mph - N/A   Overcast
6:14 PM 26.6 °F 18.2 °F 17.6 °F 69% 30.06 in 10.0 mi North 8.1 mph - N/A   Overcast
6:35 PM 24.8 °F 14.6 °F 17.6 °F 74% 30.06 in 10.0 mi North 10.4 mph - N/A   Overcast
6:55 PM 24.8 °F 16.1 °F 15.8 °F 69% 30.07 in 10.0 mi North 8.1 mph - N/A   Scattered Clouds
7:14 PM 24.8 °F 16.1 °F 15.8 °F 69% 30.07 in 10.0 mi North 8.1 mph - N/A   Clear
7:35 PM 21.2 °F 14.9 °F 15.8 °F 80% 30.08 in 10.0 mi North 4.6 mph - N/A   Clear
7:54 PM 21.2 °F 16.4 °F 15.8 °F 80% 30.07 in 10.0 mi North 3.5 mph - N/A   Clear
8:15 PM 21.2 °F 14.9 °F 15.8 °F 80% 30.07 in 10.0 mi North 4.6 mph - N/A   Clear
8:35 PM 21.2 °F 16.4 °F 15.8 °F 80% 30.07 in 10.0 mi North 3.5 mph - N/A   Scattered Clouds
8:54 PM 19.4 °F - 15.8 °F 86% 30.07 in 10.0 mi Calm Calm - N/A   Scattered Clouds
9:15 PM 19.4 °F - 15.8 °F 86% 30.07 in 10.0 mi Calm Calm - N/A   Overcast
9:35 PM 21.2 °F - 15.8 °F 80% 30.08 in 10.0 mi Calm Calm - N/A   Overcast
9:54 PM 21.2 °F - 15.8 °F 80% 30.08 in 10.0 mi Calm Calm - N/A   Overcast
10:15 PM 21.2 °F - 15.8 °F 80% 30.07 in 10.0 mi Calm Calm - N/A   Overcast
10:35 PM 21.2 °F - 15.8 °F 80% 30.06 in 10.0 mi Calm Calm - N/A   Overcast
10:54 PM 21.2 °F - 17.6 °F 86% 30.06 in 10.0 mi Calm Calm - N/A   Overcast
11:15 PM 21.2 °F - 17.6 °F 86% 30.06 in 10.0 mi Calm Calm - N/A   Overcast
11:35 PM 21.2 °F - 17.6 °F 86% 30.06 in 10.0 mi Calm Calm - N/A   Overcast
11:54 PM 21.2 °F - 17.6 °F 86% 30.06 in 10.0 mi Calm Calm - N/A   Overcast